sat.trackr.live / text

‹ back to catalog

STARLINK-5736

NORAD 55584 · 2023-020R

PAYLOAD ACTIVE UNKNOWN

§ Identity

Operator
Country
US
Launch date
2023-02-12
Launch site
AFETR
Launch vehicle
Mass (kg)
RCS (m²)

Purposes: comms

External: N2YO · Heavens-Above · Gunter

§ Orbital elements

Epoch: 2026-05-24T20:06:47.779200Z

Period
94.27 min
Inclination
43.0023°
Eccentricity
0.0001126
Mean motion
15.27576525 rev/d
Perigee alt
482.3 km
Apogee alt
483.8 km
Semi-major
6,861.2 km
B*
9.7616e-6
RAAN
295.5896°
Arg perigee
258.8549°
Mean anomaly
101.2176°
Rev number
18,055

§ Raw data

STARLINK-57361 55584U 23020R   26144.83805300  .00000007  00000+0  97616-5 0  99982 55584  43.0023 295.5896 0001126 258.8549 101.2176 15.27576525180558

JSON: /api/v1/satellites/55584 · /tle

For live sub-satellite position, see the globe view (requires WebGL).

§ Visibility from observer

Set your observer location to see the next 7 days of passes ≥ 10°. The values pass through the URL so the page stays shareable.

No JS? Fill the form by hand. The geolocation button needs JavaScript.